• en Suisse
  • Liste des pays
  • À 7 jours
  • Température de l'eau
  • Carte satellitaire
  • Carte météo
  • Widgets météo
  • user-avatar
    Se connecter

    Météo par heure à Krasnyy Kolos

    Ce jour, 18 Juillet, Mercredi

    Heure Température Précipitation Vent Pression Humidité
    00:00 +22°C° 0 mm 5 m/s 743 mmHg 71%
    01:00 +22°C° 0 mm 5 m/s 743 mmHg 73%
    02:00 +21°C° 0 mm 5 m/s 743 mmHg 75%
    03:00 +21°C° 0 mm 5 m/s 743 mmHg 77%
    04:00 +21°C° 0 mm 5 m/s 743 mmHg 78%
    05:00 +21°C° 0 mm 5 m/s 743 mmHg 78%
    06:00 +21°C° 0 mm 5 m/s 743 mmHg 78%
    07:00 +23°C° 0 mm 6 m/s 743 mmHg 70%
    08:00 +24°C° 0 mm 6 m/s 743 mmHg 62%
    09:00 +27°C° 0 mm 7 m/s 743 mmHg 55%
    10:00 +28°C° 0 mm 7 m/s 743 mmHg 52%
    11:00 +29°C° 0 mm 7 m/s 743 mmHg 49%
    12:00 +30°C° 0 mm 7 m/s 743 mmHg 46%
    13:00 +30°C° 0 mm 7 m/s 743 mmHg 45%
    14:00 +30°C° 0 mm 7 m/s 743 mmHg 43%
    15:00 +32°C° 0 mm 7 m/s 743 mmHg 42%
    16:00 +30°C° 0 mm 7 m/s 743 mmHg 43%
    17:00 +29°C° 0 mm 6 m/s 743 mmHg 45%
    18:00 +29°C° 0 mm 6 m/s 743 mmHg 46%
    19:00 +27°C° 0 mm 5 m/s 743 mmHg 50%
    20:00 +26°C° 0 mm 4 m/s 743 mmHg 53%
    21:00 +25°C° 0 mm 3 m/s 743 mmHg 57%
    22:00 +24°C° 0 mm 2 m/s 743 mmHg 58%
    23:00 +24°C° 0 mm 2 m/s 743 mmHg 60%

    Demain, 19 Juillet, Jeudi

    Heure Température Précipitation Vent Pression Humidité
    00:00 +23°C° 0 mm 2 m/s 744 mmHg 61%
    01:00 +23°C° 0 mm 2 m/s 744 mmHg 64%
    02:00 +23°C° 0 mm 2 m/s 744 mmHg 67%
    03:00 +23°C° 0 mm 1 m/s 743 mmHg 69%
    04:00 +23°C° 0,2 mm 2 m/s 744 mmHg 72%
    05:00 +23°C° 0,2 mm 2 m/s 744 mmHg 74%
    06:00 +23°C° 0,2 mm 2 m/s 744 mmHg 77%
    07:00 +24°C° 0,2 mm 2 m/s 744 mmHg 72%
    08:00 +25°C° 0,2 mm 3 m/s 744 mmHg 67%
    09:00 +26°C° 0,2 mm 3 m/s 744 mmHg 62%
    10:00 +27°C° 0,2 mm 3 m/s 744 mmHg 59%
    11:00 +28°C° 0,2 mm 3 m/s 744 mmHg 55%
    12:00 +29°C° 0,2 mm 3 m/s 744 mmHg 52%
    13:00 +29°C° 0,9 mm 4 m/s 744 mmHg 54%
    14:00 +29°C° 0,9 mm 4 m/s 744 mmHg 55%
    15:00 +29°C° 0,9 mm 4 m/s 744 mmHg 56%
    16:00 +28°C° 0,2 mm 4 m/s 744 mmHg 59%
    17:00 +28°C° 0,2 mm 3 m/s 744 mmHg 61%
    18:00 +27°C° 0,2 mm 3 m/s 744 mmHg 64%
    19:00 +26°C° 0,1 mm 3 m/s 744 mmHg 68%
    20:00 +25°C° 0,1 mm 2 m/s 744 mmHg 72%
    21:00 +24°C° 0,1 mm 2 m/s 745 mmHg 76%
    22:00 +24°C° 0 mm 1 m/s 745 mmHg 77%
    23:00 +23°C° 0 mm 1 m/s 745 mmHg 79%

    Après-demain, 20 Juillet, Vendredi

    Heure Température Précipitation Vent Pression Humidité
    00:00 +23°C° 0 mm 1 m/s 745 mmHg 80%
    01:00 +23°C° 0 mm 1 m/s 745 mmHg 81%
    02:00 +22°C° 0 mm 1 m/s 744 mmHg 82%
    03:00 +22°C° 0 mm 1 m/s 744 mmHg 83%
    04:00 +22°C° 0 mm 1 m/s 744 mmHg 82%
    05:00 +23°C° 0 mm 1 m/s 745 mmHg 82%
    06:00 +23°C° 0 mm 1 m/s 745 mmHg 81%
    07:00 +24°C° 0 mm 1 m/s 745 mmHg 75%
    08:00 +26°C° 0 mm 2 m/s 745 mmHg 68%
    09:00 +28°C° 0 mm 2 m/s 745 mmHg 62%
    10:00 +29°C° 0 mm 3 m/s 745 mmHg 57%
    11:00 +30°C° 0 mm 3 m/s 745 mmHg 52%
    12:00 +31°C° 0 mm 3 m/s 745 mmHg 46%
    13:00 +31°C° 0 mm 3 m/s 744 mmHg 45%
    14:00 +31°C° 0 mm 3 m/s 744 mmHg 44%
    15:00 +31°C° 0 mm 3 m/s 744 mmHg 43%
    16:00 +31°C° 0 mm 3 m/s 744 mmHg 43%
    17:00 +31°C° 0 mm 2 m/s 744 mmHg 42%
    18:00 +31°C° 0 mm 2 m/s 744 mmHg 42%
    19:00 +29°C° 0,2 mm 2 m/s 744 mmHg 46%
    20:00 +28°C° 0,2 mm 1 m/s 744 mmHg 51%
    21:00 +26°C° 0,2 mm 1 m/s 745 mmHg 55%
    22:00 +26°C° 0,4 mm 1 m/s 745 mmHg 57%
    23:00 +25°C° 0,4 mm 1 m/s 745 mmHg 60%

    21 Juillet, Samedi

    Heure Température Précipitation Vent Pression Humidité
    00:00 +25°C° 0,4 mm 1 m/s 745 mmHg 62%
    01:00 +24°C° 0,4 mm 1 m/s 744 mmHg 65%
    02:00 +24°C° 0,4 mm 1 m/s 744 mmHg 68%
    03:00 +23°C° 0,4 mm 1 m/s 744 mmHg 71%
    04:00 +23°C° 0 mm 1 m/s 745 mmHg 73%
    05:00 +23°C° 0 mm 1 m/s 745 mmHg 75%
    06:00 +23°C° 0 mm 1 m/s 745 mmHg 77%
    07:00 +25°C° 0 mm 2 m/s 745 mmHg 71%
    08:00 +26°C° 0 mm 2 m/s 745 mmHg 66%
    09:00 +28°C° 0 mm 2 m/s 745 mmHg 61%
    10:00 +29°C° 0 mm 2 m/s 745 mmHg 56%
    11:00 +30°C° 0 mm 3 m/s 745 mmHg 51%
    12:00 +31°C° 0 mm 3 m/s 745 mmHg 46%
    13:00 +33°C° 0 mm 3 m/s 745 mmHg 44%
    14:00 +33°C° 0 mm 4 m/s 745 mmHg 42%
    15:00 +34°C° 0 mm 4 m/s 745 mmHg 40%
    16:00 +33°C° 0 mm 3 m/s 745 mmHg 42%
    17:00 +33°C° 0 mm 3 m/s 745 mmHg 43%
    18:00 +31°C° 0 mm 3 m/s 745 mmHg 44%
    19:00 +30°C° 0 mm 3 m/s 745 mmHg 49%
    20:00 +28°C° 0 mm 3 m/s 746 mmHg 53%
    21:00 +27°C° 0 mm 2 m/s 746 mmHg 57%
    22:00 +26°C° 0 mm 2 m/s 746 mmHg 60%
    23:00 +25°C° 0 mm 2 m/s 746 mmHg 62%

    22 Juillet, Dimanche

    Heure Température Précipitation Vent Pression Humidité
    00:00 +25°C° 0 mm 2 m/s 745 mmHg 64%
    01:00 +24°C° 0 mm 2 m/s 745 mmHg 66%
    02:00 +24°C° 0 mm 2 m/s 745 mmHg 68%
    03:00 +23°C° 0 mm 2 m/s 745 mmHg 71%
    04:00 +23°C° 0 mm 1 m/s 745 mmHg 72%
    05:00 +23°C° 0 mm 1 m/s 745 mmHg 73%
    06:00 +24°C° 0 mm 1 m/s 745 mmHg 74%
    07:00 +25°C° 0 mm 2 m/s 745 mmHg 67%
    08:00 +27°C° 0 mm 2 m/s 746 mmHg 60%
    09:00 +29°C° 0 mm 3 m/s 746 mmHg 53%
    10:00 +30°C° 0 mm 3 m/s 745 mmHg 49%
    11:00 +31°C° 0 mm 3 m/s 745 mmHg 45%
    12:00 +33°C° 0 mm 3 m/s 745 mmHg 41%
    13:00 +34°C° 0 mm 3 m/s 745 mmHg 40%
    14:00 +34°C° 0 mm 3 m/s 745 mmHg 39%
    15:00 +34°C° 0 mm 3 m/s 745 mmHg 38%
    16:00 +34°C° 0 mm 3 m/s 745 mmHg 40%
    17:00 +33°C° 0 mm 3 m/s 745 mmHg 41%
    18:00 +33°C° 0 mm 3 m/s 745 mmHg 43%
    19:00 +31°C° 0 mm 3 m/s 745 mmHg 47%
    20:00 +29°C° 0 mm 3 m/s 745 mmHg 52%
    21:00 +28°C° 0 mm 2 m/s 745 mmHg 56%
    22:00 +27°C° 0 mm 2 m/s 745 mmHg 58%
    23:00 +26°C° 0 mm 2 m/s 745 mmHg 61%

    23 Juillet, Lundi

    Heure Température Précipitation Vent Pression Humidité
    00:00 +25°C° 0 mm 2 m/s 745 mmHg 63%
    01:00 +25°C° 0 mm 2 m/s 745 mmHg 65%
    02:00 +24°C° 0 mm 2 m/s 745 mmHg 67%
    03:00 +24°C° 0 mm 1 m/s 745 mmHg 69%
    04:00 +24°C° 0 mm 1 m/s 745 mmHg 70%
    05:00 +24°C° 0 mm 1 m/s 745 mmHg 71%
    06:00 +24°C° 0 mm 1 m/s 745 mmHg 71%
    07:00 +26°C° 0 mm 1 m/s 745 mmHg 65%
    08:00 +28°C° 0 mm 2 m/s 745 mmHg 58%
    09:00 +29°C° 0 mm 2 m/s 745 mmHg 52%
    10:00 +31°C° 0 mm 3 m/s 745 mmHg 48%
    11:00 +33°C° 0 mm 3 m/s 745 mmHg 44%
    12:00 +34°C° 0 mm 4 m/s 745 mmHg 40%
    13:00 +34°C° 0 mm 3 m/s 745 mmHg 40%
    14:00 +34°C° 0 mm 3 m/s 745 mmHg 39%
    15:00 +35°C° 0 mm 3 m/s 745 mmHg 38%
    16:00 +34°C° 0 mm 3 m/s 745 mmHg 40%
    17:00 +34°C° 0 mm 3 m/s 745 mmHg 41%
    18:00 +33°C° 0 mm 3 m/s 745 mmHg 43%
    19:00 +31°C° 0 mm 3 m/s 745 mmHg 47%
    20:00 +29°C° 0 mm 3 m/s 745 mmHg 51%
    21:00 +28°C° 0 mm 2 m/s 745 mmHg 55%
    22:00 +27°C° 0,1 mm 2 m/s 745 mmHg 58%
    23:00 +26°C° 0,1 mm 2 m/s 745 mmHg 60%
    Voir plus